Location: Unspecified
(0.0000°N, 0.0000°E)
Time: 21:11:41
(UTC+00:00)

Tiros 1 despin weight - Visible Passes

Search period start: 01 October 2020 00:00
Search period end: 11 October 2020 00:00
Orbit: 593 x 642 km, 48.2° (Epoch: 30 September)

Date Brightness Start Highest point End Pass type
(mag) Time Alt. Az. Time Alt. Az. Time Alt. Az.
01 Oct ? 18:17:56 10° N 18:21:02 17° NE 18:23:58 11° E visible
01 Oct ? 19:58:09 10° WNW 20:01:07 30° W 20:01:07 30° W visible
02 Oct ? 18:33:00 10° NNW 18:37:27 45° NE 18:41:19 13° ESE visible
02 Oct ? 20:16:22 10° W 20:18:29 14° SW 20:18:29 14° SW visible
03 Oct ? 18:49:13 10° NW 18:53:50 66° SW 18:58:30 10° SSE visible
04 Oct ? 05:18:13 10° SSE 05:20:43 15° SE 05:23:13 10° E visible
04 Oct ? 19:06:26 10° WNW 19:10:15 25° SW 19:14:05 10° S visible
07 Oct ? 04:25:07 10° S 04:28:34 22° SE 04:32:00 10° ENE visible
07 Oct ? 18:15:03 10° W 18:18:04 17° SW 18:21:05 10° S visible
08 Oct ? 04:40:36 10° SSW 04:44:58 61° SE 04:49:19 10° NE visible
09 Oct ? 03:20:05 13° SE 03:20:05 13° SE 03:21:53 10° ESE visible
09 Oct ? 04:57:15 11° WSW 05:01:21 44° NW 05:05:33 10° NNE visible
10 Oct ? 03:37:37 28° E 03:37:37 28° E 03:40:22 10° ENE visible
10 Oct ? 05:14:55 10° W 05:17:45 17° NW 05:20:34 10° N visible
